COSMOS 304

Satellite information

Favourite Embed

Satellite Type and Status

PAYLOADIN ORBIT

Key statistics

Satellite COSMOS 304 at a glance.

Uptime

20408

Days in orbit

Revolutions

≈ 14.5

Per day

Orbit

LEO

Low Earth Orbit

Inclination

74.0

Latest

Satellite identification and parameters

Extended collection of information and parameters for COSMOS 304.

Object identification

Identified? True

Debris? False

Object name: COSMOS 304

International designator: 1969-091A

Object number (NORAD): 4138

Object ID (CCSDS): 4138

Country: COMMONWEALTH OF INDEPENDENT STATES (CIS)

Current information (Y/N): Y

RCS size: LARGE

Orbital parameters

Period: 99.557 minutes

Inclination: 74.039 deg

SMA: 7115.522 km

Apoapsis: 745.823 km

Periapsis: 728.952 km

RAAN: 45.4138 deg

Eccentricy: 0.00118551

Argument of periapsis: 123.9193 deg

Mean anomaly: 236.3095 deg

Mean motion: 14.46413943 rev/day

Mean motion (dot): 0.00000132 rev/day2

B* drag term: 0.000044139835 1/REarth

Two-line elements (TLE)

Creation date: Sept. 4, 2025, 10:13 a.m.

Reference frame: TEME

Reference center: EARTH

Epoch: Sept. 4, 2025, 3:27 a.m. UTC

TLE line 0: 0 COSMOS 304

TLE line 1: 1 04138U 69091A 25247.14431193 .00000132 00000-0 44140-4 0 9990

TLE line 2: 2 04138 74.0390 45.4138 0011855 123.9193 236.3095 14.46413943946370

Live tracking on map

Real-time ground track for satellite COSMOS 304.

In-orbit conjunctions

A list of the most updated potential collisions computed for object COSMOS 304.

Target Orbit TCA Probability of collision Miss distance Type
DMSP 5D-2 F11 DEB SSO 2025-07-27 23:45:36 0.0002527565 599.0 (m) DEBRIS
NOAA 17 DEB SSO 2025-04-18 09:10:30 0.0001405971 648.0 (m) DEBRIS
FENGYUN 1C DEB SSO 2024-12-24 07:12:57 0.0002674951 259.0 (m) DEBRIS
THORAD AGENA D DEB LEO 2024-10-16 02:08:03 0.0001629692 186.0 (m) DEBRIS
CZ-4 DEB SSO 2024-06-01 20:10:48 0.0006923445 100.0 (m) DEBRIS

Associated space launch

The first soviet navigation system called Tsiklon consisted of Zaliv satellites in low earth orbit.

COSMOS 304 was lifted into orbit during the mission ‘Kosmos-3M | Zaliv 4’, on board a Kosmos-3M space rocket.

The launch took place on Oct. 21, 1969, 12:49 p.m. from 132/1 (132L).

For more information about the launch, click the button.

Launch to space Kosmos-3M | Zaliv 4
Kosmos-3M | Zaliv 4

Agency: N/A

Status: Launch Successful

Launch date: Oct. 21, 1969, 12:49 p.m. UTC

Rocket: Kosmos-3M

Launch pad: 132/1 (132L)

Location: Plesetsk Cosmodrome, Russian Federation

...

Latest news about this satellite

There are no fresh news available about this satellite. Check back as we update our databases every day.


Newsletter sign-up

Weekly statistics, charts and insights to help you stay on top of the space industry.